EW8748 Weather Reports


Display with metric or nautical units.
time (UTC)temp
F
wind
direction
speed
MPH
gust
MPH
rain 1hr
in
rain 24hr
in
rain mn
in
humidity
%
barometer
mb
20260506022018 55 285 1.0 2.0 0.00 0.00 0.00 81 1015.0
20260506021018 55 309 0.0 1.0 0.00 0.00 0.00 82 1014.9
20260506020011 55 309 1.0 2.0 0.00 0.00 0.00 82 1015.0
20260506014511 56 257 2.0 3.0 0.00 0.00 0.00 81 1015.2
20260506013511 55 226 3.0 3.0 0.00 0.00 0.00 80 1015.2
20260506012511 56 272 1.0 5.0 0.00 0.00 0.00 77 1015.2
20260506012017 57 321 0.0 3.0 0.00 0.00 0.00 77 1015.2
20260506011017 56 80 1.0 2.0 0.00 0.00 0.00 78 1015.2
20260506010511 56 108 1.0 3.0 0.00 0.00 0.00 79 1015.1
20260506005019 56 274 2.0 5.0 0.00 0.00 0.00 83 1015.5
20260506001511 57 37 1.0 3.0 0.00 0.00 0.00 80 1015.6
20260506001018 57 110 2.0 3.0 0.00 0.00 0.00 80 1015.6
20260506000011 57 127 1.0 3.0 0.00 0.00 0.00 80 1015.6
20260505235511 57 96 2.0 3.0 0.00 0.00 0.00 80 1015.7
20260505235017 57 103 2.0 3.0 0.00 0.00 0.00 80 1015.7
20260505234511 57 98 2.0 3.0 0.00 0.00 0.00 80 1015.8
20260505234017 57 128 1.0 3.0 0.00 0.00 0.00 80 1015.8
20260505232511 57 112 1.0 2.0 0.00 0.00 0.00 79 1016.2
20260505230511 56 104 1.0 1.0 0.00 0.00 0.00 81 1016.4
20260505230011 56 104 1.0 2.0 0.00 0.00 0.00 81 1016.4
20260505225513 57 110 1.0 2.0 0.00 0.00 0.00 81 1016.4
20260505224518 57 155 2.0 3.0 0.00 0.00 0.00 80 1016.5
20260505222517 57 147 1.0 2.0 0.00 0.00 0.00 80 1016.4
20260505222023 57 155 1.0 2.0 0.00 0.00 0.00 80 1016.5
20260505221516 57 141 1.0 3.0 0.00 0.00 0.00 79 1016.6
20260505220516 58 172 1.0 3.0 0.00 0.00 0.00 77 1016.7
20260505215516 58 57 1.0 2.0 0.00 0.00 0.00 76 1016.6
20260505215023 58 43 1.0 3.0 0.00 0.00 0.00 75 1016.7
20260505213024 58 119 1.0 2.0 0.00 0.00 0.00 74 1016.7
20260505212023 58 120 1.0 2.0 0.00 0.00 0.00 75 1016.7
20260505211517 58 115 1.0 3.0 0.00 0.00 0.00 76 1016.8
20260505211023 58 116 2.0 3.0 0.00 0.00 0.00 75 1016.8
20260505210516 59 107 2.0 3.0 0.00 0.00 0.00 73 1016.9
20260505210016 59 107 3.0 3.0 0.00 0.00 0.00 72 1016.9
20260505204517 59 125 3.0 3.0 0.00 0.00 0.00 71 1016.9
20260505202516 58 10 0.0 2.0 0.00 0.00 0.00 74 1017.3
20260505201023 60 47 0.0 2.0 0.00 0.00 0.00 72 1017.0
20260505200017 60 110 0.0 1.0 0.00 0.00 0.00 72 1017.0
20260505194518 59 99 1.0 2.0 0.00 0.00 0.00 73 1016.9
20260505194023 59 99 1.0 2.0 0.00 0.00 0.00 73 1017.0
20260505193023 60 89 2.0 3.0 0.00 0.00 0.00 72 1016.9
20260505191516 61 321 1.0 3.0 0.00 0.00 0.00 69 1016.8
20260505191023 61 275 1.0 2.0 0.00 0.00 0.00 67 1016.8
20260505190516 60 266 1.0 3.0 0.00 0.00 0.00 69 1016.7
20260505185517 60 286 1.0 3.0 0.00 0.00 0.00 71 1016.6
20260505182023 60 254 4.0 7.0 0.00 0.00 0.00 73 1016.4
20260505181516 60 260 5.0 7.0 0.00 0.00 0.00 72 1016.3
20260505180516 60 244 4.0 7.0 0.00 0.00 0.00 71 1016.2
20260505174024 61 271 5.0 9.0 0.00 0.00 0.00 66 1016.4
20260505173516 61 255 7.0 9.0 0.00 0.00 0.00 65 1016.4
20260505172517 62 250 6.0 10.0 0.00 0.00 0.00 63 1016.4
20260505172024 62 247 7.0 9.0 0.00 0.00 0.00 62 1016.4
20260505171024 62 253 6.0 12.0 0.00 0.00 0.00 61 1016.5
20260505170517 62 256 6.0 10.0 0.00 0.00 0.00 61 1016.5
20260505164024 64 277 6.0 12.0 0.00 0.00 0.00 59 1016.4
20260505163024 64 268 7.0 12.0 0.00 0.00 0.00 57 1016.4
20260505162516 64 68 9.0 13.0 0.00 0.00 0.00 59 1016.4
20260505161517 64 284 7.0 13.0 0.00 0.00 0.00 58 1016.5
20260505161024 65 276 8.0 13.0 0.00 0.00 0.00 56 1016.5
20260505153023 66 224 7.0 14.0 0.00 0.00 0.00 53 1016.5
20260505152025 67 190 10.0 14.0 0.00 0.00 0.00 51 1016.5
20260505151023 67 266 7.0 13.0 0.00 0.00 0.00 49 1016.4
20260505140516 69 258 9.0 15.0 0.00 0.00 0.00 39 1016.5
20260505125023 70 300 5.0 10.0 0.00 0.00 0.00 48 1017.0
20260505124516 70 262 5.0 12.0 0.00 0.00 0.00 48 1017.0
20260505123516 69 248 7.0 14.0 0.00 0.00 0.00 52 1017.2
20260505123023 69 243 10.0 14.0 0.00 0.00 0.00 51 1017.2
20260505121023 70 204 6.0 12.0 0.00 0.00 0.00 50 1017.3
20260505120016 69 185 6.0 10.0 0.00 0.00 0.00 51 1017.4
20260505115023 69 247 7.0 14.0 0.00 0.00 0.00 53 1017.4
20260505114516 69 292 6.0 9.0 0.00 0.00 0.00 52 1017.4
20260505114025 69 255 5.0 12.0 0.00 0.00 0.00 52 1017.5
20260505113516 68 272 5.0 9.0 0.00 0.00 0.00 54 1017.6
20260505113023 68 256 7.0 12.0 0.00 0.00 0.00 54 1017.6
20260505112516 68 307 6.0 12.0 0.00 0.00 0.00 53 1017.6
20260505111023 67 294 5.0 10.0 0.00 0.00 0.00 52 1017.6
20260505110516 67 274 6.0 12.0 0.00 0.00 0.00 52 1017.6
20260505102026 67 289 6.0 9.0 0.00 0.00 0.00 52 1017.7
20260505101515 67 243 6.0 12.0 0.00 0.00 0.00 51 1017.8
20260505101023 67 251 6.0 10.0 0.00 0.00 0.00 51 1017.8
20260505100015 66 234 8.0 13.0 0.00 0.00 0.00 52 1017.9
20260505095516 66 249 7.0 12.0 0.00 0.00 0.00 52 1017.9
20260505094023 66 255 6.0 12.0 0.00 0.00 0.00 54 1018.0
20260505093023 66 243 6.0 12.0 0.00 0.00 0.00 55 1018.0
20260505092516 65 231 7.0 12.0 0.00 0.00 0.00 57 1018.0
20260505091515 65 239 6.0 12.0 0.00 0.00 0.00 58 1018.0
20260505091023 66 237 6.0 10.0 0.00 0.00 0.00 57 1018.1
20260505090516 65 173 3.0 10.0 0.00 0.00 0.00 57 1018.1
20260505090015 65 257 6.0 12.0 0.00 0.00 0.00 56 1018.1
20260505085023 65 192 5.0 10.0 0.00 0.00 0.00 56 1018.1
20260505083023 64 229 6.0 9.0 0.00 0.00 0.00 55 1018.2
20260505082515 64 218 6.0 10.0 0.00 0.00 0.00 56 1018.2
20260505081516 63 234 3.0 10.0 0.00 0.00 0.00 56 1018.2
20260505080515 62 208 5.0 12.0 0.00 0.00 0.00 62 1018.1
20260505075023 63 249 4.0 7.0 0.00 0.00 0.00 63 1018.0
20260505074516 63 244 5.0 7.0 0.00 0.00 0.00 64 1018.1
20260505072516 63 115 1.0 3.0 0.00 0.00 0.00 61 1018.1
20260505072023 62 253 1.0 3.0 0.00 0.00 0.00 60 1018.1
20260505071024 61 240 2.0 3.0 0.00 0.00 0.00 65 1018.2
20260505065515 59 249 3.0 7.0 0.00 0.00 0.00 72 1018.3
20260505065022 59 257 5.0 8.0 0.00 0.00 0.00 73 1018.3
20260505064516 58 249 6.0 10.0 0.00 0.00 0.00 74 1018.4
20260505063023 58 217 3.0 8.0 0.00 0.00 0.00 74 1018.3
20260505055515 56 296 5.0 7.0 0.00 0.00 0.00 76 1018.1
20260505055023 55 283 2.0 3.0 0.00 0.00 0.00 74 1018.0
20260505054023 55 289 2.0 3.0 0.00 0.00 0.00 75 1018.1
20260505053023 54 303 3.0 6.0 0.00 0.00 0.00 76 1018.0
20260505052515 54 280 3.0 6.0 0.00 0.00 0.00 77 1018.0
20260505050515 53 294 3.0 8.0 0.00 0.00 0.00 78 1018.1
20260505041024 52 254 3.0 7.0 0.00 0.00 0.00 76 1017.4
20260505040515 52 268 3.0 6.0 0.00 0.00 0.00 75 1017.4
20260505035023 53 299 2.0 3.0 0.00 0.00 0.00 72 1017.3
20260505032515 53 260 2.0 3.0 0.00 0.00 0.00 72 1017.4
20260505032021 53 272 3.0 3.0 0.00 0.00 0.00 73 1017.4
20260505031022 52 286 3.0 5.0 0.00 0.00 0.00 76 1017.4
20260505023022 53 314 2.0 6.0 0.00 0.00 0.00 77 1017.4
20260505022515 53 283 3.0 6.0 0.00 0.00 0.00 78 1017.4